STARLINK-2598, 48385

Orbit data source: Space-Track

STARLINK-2598, 48385 is a payload satellite owned by SpaceX/Seattle (US) in LEO that was launched on Tue, 04 May 2021 UTC via an FALCON 9 launch vehicle from the Air Force Eastern Test Range (AFETR). Payload-class satellites include a variety of spacecraft equipped with specific instruments for various scientific and technological missions. These include communications satellites like Starlink; space stations such as the ISS; scientific satellites like the Hubble; Earth observation satellites from companies like Planet Labs, Umbra, and HawkEye 360; GPS; miniature CubeSats for education and research; and military/defense satellites.

Loading next visibility...
Identifier
48385, 2021-038AJ
Orbit
LEO
Country
Flag of USUS
Related business
Manufacturer
SpaceX/Seattle
Mission
Operational Commercial Communications
Bus & Motor
STARLINK, Unknown motor
Mass
260 kg wet, ~248 kg dry
Launch date (UTC)
2021-05-04 (5 years ago)
Launch vehicle
FALCON 9
Launch site
Air Force Eastern Test Range (AFETR)
Object type
Payload
Rocket body
Debris
Shape & HBR
Box + 1 Pan, 10.1 m
Radar Cross Section
13.562 m², Large (>1 m²)

Expand to show TLE details & history
Last TLE update: 2 days ago

TLE from 2 days ago
0 STARLINK-2598
1 48385U 21038AJ  26171.41747841 -.00000106  00000-0  83374-5 0  9993
2 48385  53.1596 227.5123 0000958  70.8951 289.2154 15.31696457284229
Epoch: 2026-06-20T10:01Z
TLE epoch observation values (Epoch: 2026-06-20T10:01:10.134Z)
Latitude
-0.00004°
Longitude
168.58765°
Altitude
471.435 km
Speed
7.632 km/s
True Right ascension
15h 10m 02s
True Declination
0° 00' 00"
Sunlit
Object was in full shadow at epoch
Visualization orbit readout
Latitude
Unknown
Longitude
Unknown
Altitude
Unknown
Speed
Unknown
Apparent Right ascension
Unknown
Apparent Declination
Unknown
Sunlit
N/A
Visualization observer readout
Local Sidereal Time
21:37:40
Azimuth
Unknown
Elevation
Unknown
Doppler factor
Unknown
Orbital elements
Apogee altitude
471.663 km
Perigee altitude
470.351 km
Semi-major axis
6,849.144 km
Eccentricity
0.0001
Inclination
53.1596°
RAAN
227.5123°
Arg. of periapsis
70.8951°
True anomaly
289.20503°
Mean anomaly
289.2154°
Eccentric anomaly
289.21022°
Mean motion
3.82903 °/min
Orbital period
94.02 mins
BSTAR
0.0000083374
Loading maneuver chart data...
Computing Atmospheric mass density...

Documentation

Showing up to 5 results
|